Simultaneous Nadir Overpasses (SNOs) Predictions

Prediction of SNOs between FY3D and NPP Satellite Orbit:

Table of predicted SNOs for the next 14.0 days since TLE Epoch: 5/1/2021
Index Date (FY3D) Time (FY3D) Lat,Lon (FY3D) SZA (FY3D ) Date (NPP) Time (NPP) Lat,Lon (NPP) SZA (NPP ) Distance(km) Time Diff (sec)
1 05/08/2021 17:31:05 -81.21, 37.37 111.67 05/08/2021 17:29:50 -81.21, 37.35 111.63 0.38 75
2 05/08/2021 18:21:50 81.21,-155.45 68.34 05/08/2021 18:20:35 81.21,-155.42 68.38 0.50 75
3 05/08/2021 19:12:34 -81.21, 11.98 111.69 05/08/2021 19:11:20 -81.21, 11.96 111.64 0.45 74
4 05/08/2021 20:03:19 81.21, 179.17 68.32 05/08/2021 20:02:05 81.21, 179.19 68.36 0.42 74
5 05/08/2021 20:54:03 -81.21, -13.40 111.71 05/08/2021 20:52:50 -81.21, -13.43 111.66 0.52 73
6 05/08/2021 21:44:48 81.22, 153.78 68.31 05/08/2021 21:43:35 81.22, 153.80 68.35 0.33 73
7 05/08/2021 22:35:32 -81.21, -38.79 111.72 05/08/2021 22:34:20 -81.21, -38.82 111.68 0.60 72
8 05/08/2021 23:26:17 81.22, 128.40 68.29 05/08/2021 23:25:05 81.22, 128.41 68.33 0.25 72
9 05/09/2021 00:17:01 -81.21, -64.17 111.74 05/09/2021 00:15:50 -81.21, -64.21 111.69 0.67 71
10 05/09/2021 01:07:46 81.22, 103.01 68.27 05/09/2021 01:06:35 81.22, 103.02 68.31 0.16 71
11 05/09/2021 01:58:30 -81.21, -89.56 111.76 05/09/2021 01:57:20 -81.21, -89.60 111.71 0.75 70
12 05/09/2021 02:49:15 81.22, 77.63 68.26 05/09/2021 02:48:05 81.22, 77.63 68.30 0.09 70
13 05/09/2021 03:39:59 -81.21,-114.95 111.77 05/09/2021 03:38:50 -81.21,-114.99 111.73 0.82 69
14 05/09/2021 04:30:44 81.22, 52.24 68.24 05/09/2021 04:29:35 81.22, 52.24 68.28 0.06 69
15 05/09/2021 05:21:28 -81.21,-140.33 111.79 05/09/2021 05:20:20 -81.22,-140.38 111.74 0.89 68
16 05/09/2021 06:12:13 81.22, 26.86 68.22 05/09/2021 06:11:05 81.22, 26.85 68.26 0.13 68
17 05/09/2021 07:02:57 -81.21,-165.72 111.81 05/09/2021 07:01:50 -81.22,-165.77 111.76 0.97 67
18 05/09/2021 07:53:42 81.22, 1.47 68.21 05/09/2021 07:52:35 81.22, 1.46 68.25 0.21 67
19 05/09/2021 08:44:26 -81.21, 168.90 111.82 05/09/2021 08:43:20 -81.22, 168.84 111.78 1.04 66
20 05/09/2021 09:35:11 81.22, -23.92 68.19 05/09/2021 09:34:05 81.22, -23.93 68.23 0.29 66
21 05/09/2021 10:25:55 -81.22, 143.51 111.84 05/09/2021 10:24:50 -81.22, 143.45 111.79 1.12 65
22 05/09/2021 11:16:40 81.22, -49.30 68.18 05/09/2021 11:15:35 81.22, -49.32 68.22 0.38 65
23 05/09/2021 12:07:24 -81.22, 118.13 111.85 05/09/2021 12:06:20 -81.22, 118.06 111.81 1.19 64
24 05/09/2021 12:58:09 81.22, -74.69 68.16 05/09/2021 12:57:05 81.22, -74.71 68.20 0.47 64
25 05/09/2021 13:48:53 -81.22, 92.74 111.87 05/09/2021 13:47:50 -81.22, 92.67 111.82 1.27 63
26 05/09/2021 14:39:38 81.22,-100.07 68.14 05/09/2021 14:38:35 81.22,-100.10 68.18 0.55 63
27 05/09/2021 15:30:22 -81.22, 67.36 111.89 05/09/2021 15:29:20 -81.22, 67.28 111.84 1.34 62
28 05/09/2021 16:21:07 81.22,-125.46 68.13 05/09/2021 16:20:05 81.22,-125.49 68.17 0.64 62
29 05/09/2021 17:11:51 -81.22, 41.97 111.90 05/09/2021 17:10:50 -81.22, 41.89 111.86 1.42 61
30 05/09/2021 18:02:36 81.22,-150.84 68.11 05/09/2021 18:01:35 81.22,-150.88 68.15 0.73 61
31 05/09/2021 18:53:20 -81.22, 16.58 111.92 05/09/2021 18:52:20 -81.22, 16.50 111.87 1.49 60
32 05/09/2021 19:44:05 81.22,-176.23 68.09 05/09/2021 19:43:05 81.22,-176.28 68.13 0.82 60
33 05/09/2021 20:34:49 -81.22, -8.80 111.94 05/09/2021 20:33:50 -81.22, -8.89 111.89 1.57 59
34 05/09/2021 21:25:34 81.22, 158.39 68.08 05/09/2021 21:24:35 81.22, 158.33 68.12 0.90 59
35 05/09/2021 22:16:18 -81.22, -34.19 111.95 05/09/2021 22:15:20 -81.22, -34.28 111.91 1.64 58
36 05/09/2021 23:07:02 81.22, 133.00 68.06 05/09/2021 23:06:04 81.22, 132.94 68.10 0.99 58
37 05/09/2021 23:57:46 -81.22, -59.57 111.97 05/09/2021 23:56:49 -81.22, -59.67 111.92 1.72 57
38 05/10/2021 00:48:31 81.22, 107.61 68.05 05/10/2021 00:47:34 81.22, 107.55 68.09 1.08 57
39 05/10/2021 01:39:15 -81.22, -84.96 111.99 05/10/2021 01:38:19 -81.22, -85.06 111.94 1.80 56
40 05/10/2021 02:30:00 81.22, 82.23 68.03 05/10/2021 02:29:04 81.22, 82.16 68.07 1.17 56
41 05/10/2021 03:20:44 -81.22,-110.34 112.00 05/10/2021 03:19:49 -81.22,-110.45 111.95 1.87 55
42 05/10/2021 04:11:29 81.22, 56.84 68.01 05/10/2021 04:10:34 81.22, 56.77 68.05 1.26 55
43 05/10/2021 05:02:13 -81.22,-135.73 112.02 05/10/2021 05:01:19 -81.22,-135.84 111.97 1.95 54
44 05/10/2021 05:52:58 81.22, 31.46 68.00 05/10/2021 05:52:04 81.22, 31.38 68.04 1.35 54
45 05/10/2021 06:43:42 -81.22,-161.11 112.03 05/10/2021 06:42:49 -81.22,-161.23 111.99 2.03 53
46 05/10/2021 07:34:27 81.22, 6.07 67.98 05/10/2021 07:33:34 81.22, 5.99 68.02 1.44 53
47 05/10/2021 08:25:11 -81.22, 173.50 112.05 05/10/2021 08:24:19 -81.22, 173.38 112.00 2.10 52
48 05/10/2021 09:15:56 81.22, -19.31 67.96 05/10/2021 09:15:04 81.22, -19.40 68.01 1.53 52
49 05/10/2021 10:06:40 -81.22, 148.11 112.07 05/10/2021 10:05:49 -81.22, 147.99 112.02 2.18 51
50 05/10/2021 10:57:25 81.22, -44.70 67.95 05/10/2021 10:56:34 81.22, -44.79 67.99 1.61 51
51 05/10/2021 11:48:09 -81.22, 122.73 112.08 05/10/2021 11:47:19 -81.22, 122.60 112.03 2.26 50
52 05/10/2021 12:38:54 81.22, -70.09 67.93 05/10/2021 12:38:04 81.22, -70.18 67.98 1.70 50
53 05/10/2021 13:29:38 -81.22, 97.34 112.10 05/10/2021 13:28:49 -81.22, 97.21 112.05 2.33 49
54 05/10/2021 14:20:23 81.22, -95.47 67.92 05/10/2021 14:19:34 81.22, -95.57 67.96 1.79 49
55 05/10/2021 15:11:07 -81.22, 71.96 112.11 05/10/2021 15:10:19 -81.22, 71.82 112.07 2.41 48
56 05/10/2021 16:01:52 81.22,-120.86 67.90 05/10/2021 16:01:04 81.22,-120.97 67.94 1.88 48
57 05/10/2021 16:52:36 -81.22, 46.57 112.13 05/10/2021 16:51:49 -81.22, 46.43 112.08 2.49 47
58 05/10/2021 17:43:21 81.22,-146.24 67.88 05/10/2021 17:42:34 81.22,-146.36 67.93 1.97 47
59 05/10/2021 18:34:05 -81.22, 21.19 112.15 05/10/2021 18:33:19 -81.22, 21.04 112.10 2.57 46
60 05/10/2021 19:24:50 81.22,-171.63 67.87 05/10/2021 19:24:04 81.22,-171.75 67.91 2.06 46
61 05/10/2021 20:15:34 -81.22, -4.20 112.16 05/10/2021 20:14:49 -81.22, -4.35 112.11 2.64 45
62 05/10/2021 21:06:19 81.22, 162.99 67.85 05/10/2021 21:05:34 81.23, 162.86 67.90 2.15 45
63 05/10/2021 21:57:03 -81.22, -29.59 112.18 05/10/2021 21:56:19 -81.22, -29.74 112.13 2.72 44
64 05/10/2021 22:47:48 81.22, 137.60 67.84 05/10/2021 22:47:04 81.23, 137.47 67.88 2.24 44
65 05/10/2021 23:38:32 -81.22, -54.97 112.19 05/10/2021 23:37:49 -81.22, -55.13 112.14 2.80 43
66 05/11/2021 00:29:17 81.22, 112.21 67.82 05/11/2021 00:28:34 81.23, 112.08 67.87 2.33 43
67 05/11/2021 01:20:01 -81.22, -80.36 112.21 05/11/2021 01:19:19 -81.22, -80.52 112.16 2.88 42
68 05/11/2021 02:10:45 81.22, 87.22 67.75 05/11/2021 02:10:03 81.22, 87.07 67.79 2.42 42
69 05/11/2021 03:01:30 -81.22,-105.74 112.22 05/11/2021 03:00:49 -81.22,-105.92 112.18 2.96 41
70 05/11/2021 03:52:14 81.22, 61.83 67.73 05/11/2021 03:51:33 81.22, 61.68 67.78 2.51 41
71 05/11/2021 04:42:59 -81.22,-131.13 112.24 05/11/2021 04:42:19 -81.22,-131.31 112.19 3.04 40
72 05/11/2021 05:33:43 81.22, 36.45 67.72 05/11/2021 05:33:03 81.22, 36.29 67.76 2.60 40
73 05/11/2021 06:24:28 -81.22,-156.51 112.26 05/11/2021 06:23:49 -81.22,-156.70 112.21 3.11 39
74 05/11/2021 07:15:12 81.22, 11.06 67.70 05/11/2021 07:14:33 81.22, 10.90 67.75 2.69 39
75 05/11/2021 08:05:57 -81.22, 178.10 112.27 05/11/2021 08:05:19 -81.23, 177.91 112.22 3.19 38
76 05/11/2021 08:56:41 81.22, -14.33 67.69 05/11/2021 08:56:03 81.22, -14.49 67.73 2.78 38
77 05/11/2021 09:47:26 -81.22, 152.71 112.29 05/11/2021 09:46:49 -81.23, 152.52 112.24 3.27 37
78 05/11/2021 10:38:10 81.22, -39.71 67.67 05/11/2021 10:37:33 81.22, -39.88 67.72 2.87 37
79 05/11/2021 11:28:55 -81.22, 127.33 112.30 05/11/2021 11:28:18 -81.22, 127.52 112.31 3.24 37
80 05/11/2021 12:19:39 81.22, -65.10 67.66 05/11/2021 12:19:03 81.22, -65.27 67.70 2.96 36
81 05/11/2021 13:10:24 -81.22, 101.94 112.32 05/11/2021 13:09:48 -81.22, 102.13 112.33 3.16 36
82 05/11/2021 14:01:08 81.22, -90.48 67.64 05/11/2021 14:00:33 81.22, -90.66 67.69 3.06 35
83 05/11/2021 14:51:53 -81.22, 76.56 112.33 05/11/2021 14:51:18 -81.22, 76.74 112.34 3.08 35
84 05/11/2021 15:42:37 81.22,-115.87 67.63 05/11/2021 15:42:03 81.22,-116.05 67.67 3.15 34
85 05/11/2021 16:33:22 -81.22, 51.17 112.35 05/11/2021 16:32:48 -81.22, 51.35 112.36 3.00 34
86 05/11/2021 17:24:06 81.22,-141.26 67.61 05/11/2021 17:23:33 81.22,-141.45 67.66 3.24 33
87 05/11/2021 18:14:51 -81.22, 25.79 112.37 05/11/2021 18:14:18 -81.22, 25.96 112.37 2.92 33
88 05/11/2021 19:05:36 81.22,-167.03 67.65 05/11/2021 19:05:03 81.22,-166.84 67.64 3.29 33
89 05/11/2021 19:56:20 -81.22, 0.40 112.38 05/11/2021 19:55:48 -81.22, 0.57 112.39 2.84 32
90 05/11/2021 20:47:05 81.22, 167.58 67.63 05/11/2021 20:46:33 81.22, 167.77 67.62 3.20 32
91 05/11/2021 21:37:49 -81.22, -24.99 112.40 05/11/2021 21:37:18 -81.22, -24.82 112.40 2.76 31
92 05/11/2021 22:28:34 81.22, 142.20 67.62 05/11/2021 22:28:03 81.22, 142.38 67.61 3.11 31
93 05/11/2021 23:19:18 -81.22, -50.37 112.41 05/11/2021 23:18:48 -81.22, -50.22 112.42 2.68 30
94 05/12/2021 00:10:03 81.23, 116.81 67.60 05/12/2021 00:09:33 81.22, 116.99 67.59 3.02 30
95 05/12/2021 01:00:47 -81.22, -75.76 112.43 05/12/2021 01:00:18 -81.22, -75.61 112.43 2.60 29
96 05/12/2021 01:51:32 81.23, 91.43 67.59 05/12/2021 01:51:03 81.22, 91.60 67.58 2.93 29
97 05/12/2021 02:42:15 -81.22,-101.14 112.44 05/12/2021 02:41:47 -81.22,-101.00 112.45 2.52 28
98 05/12/2021 03:33:00 81.23, 66.04 67.57 05/12/2021 03:32:32 81.22, 66.21 67.56 2.83 28
99 05/12/2021 04:23:44 -81.22,-126.53 112.46 05/12/2021 04:23:17 -81.22,-126.39 112.46 2.44 27
100 05/12/2021 05:14:29 81.23, 40.66 67.56 05/12/2021 05:14:02 81.22, 40.82 67.55 2.74 27
101 05/12/2021 06:05:13 -81.22,-151.91 112.47 05/12/2021 06:04:47 -81.22,-151.78 112.48 2.36 26
102 05/12/2021 06:55:58 81.23, 15.27 67.54 05/12/2021 06:55:32 81.22, 15.42 67.53 2.65 26
103 05/12/2021 07:46:42 -81.22,-177.30 112.49 05/12/2021 07:46:17 -81.22,-177.17 112.49 2.28 25
104 05/12/2021 08:37:27 81.23, -10.12 67.53 05/12/2021 08:37:02 81.22, -9.97 67.52 2.56 25
105 05/12/2021 09:28:11 -81.22, 157.31 112.50 05/12/2021 09:27:47 -81.22, 157.44 112.51 2.20 24
106 05/12/2021 10:18:56 81.23, -35.50 67.51 05/12/2021 10:18:32 81.22, -35.36 67.50 2.47 24
107 05/12/2021 11:09:40 -81.22, 131.93 112.52 05/12/2021 11:09:17 -81.22, 132.05 112.52 2.11 23
108 05/12/2021 12:00:25 81.23, -60.89 67.50 05/12/2021 12:00:02 81.22, -60.75 67.49 2.37 23
109 05/12/2021 12:51:09 -81.22, 106.54 112.53 05/12/2021 12:50:47 -81.22, 106.66 112.54 2.03 22
110 05/12/2021 13:41:54 81.23, -86.27 67.48 05/12/2021 13:41:32 81.23, -86.14 67.47 2.28 22
111 05/12/2021 14:32:38 -81.23, 81.16 112.55 05/12/2021 14:32:17 -81.22, 81.27 112.55 1.95 21
112 05/12/2021 15:23:23 81.23,-111.66 67.46 05/12/2021 15:23:02 81.23,-111.53 67.46 2.19 21
113 05/12/2021 16:14:07 -81.23, 55.77 112.57 05/12/2021 16:13:47 -81.22, 55.88 112.57 1.87 20
114 05/12/2021 17:04:52 81.23,-137.05 67.45 05/12/2021 17:04:32 81.23,-136.92 67.44 2.10 20
115 05/12/2021 17:55:36 -81.23, 30.38 112.58 05/12/2021 17:55:17 -81.22, 30.49 112.58 1.79 19
116 05/12/2021 18:46:21 81.23,-162.43 67.43 05/12/2021 18:46:02 81.23,-162.31 67.43 2.00 19
117 05/12/2021 19:37:05 -81.23, 5.00 112.60 05/12/2021 19:36:47 -81.22, 5.10 112.60 1.71 18
118 05/12/2021 20:27:50 81.23, 172.18 67.42 05/12/2021 20:27:32 81.23, 172.29 67.41 1.91 18
119 05/12/2021 21:18:34 -81.23, -20.39 112.61 05/12/2021 21:18:17 -81.22, -20.29 112.61 1.62 17
120 05/12/2021 22:09:19 81.23, 146.80 67.40 05/12/2021 22:09:02 81.23, 146.90 67.40 1.82 17
121 05/12/2021 23:00:03 -81.23, -45.77 112.63 05/12/2021 22:59:47 -81.22, -45.68 112.63 1.54 16
122 05/12/2021 23:50:48 81.23, 121.41 67.39 05/12/2021 23:50:32 81.23, 121.51 67.38 1.73 16
123 05/13/2021 00:41:32 -81.23, -71.16 112.64 05/13/2021 00:41:17 -81.23, -71.07 112.64 1.46 15
124 05/13/2021 01:32:17 81.23, 96.02 67.37 05/13/2021 01:32:02 81.23, 96.12 67.37 1.63 15
125 05/13/2021 02:23:01 -81.23, -96.55 112.66 05/13/2021 02:22:47 -81.23, -96.46 112.66 1.38 14
126 05/13/2021 03:13:46 81.23, 70.64 67.36 05/13/2021 03:13:32 81.23, 70.73 67.35 1.54 14
127 05/13/2021 04:04:30 -81.23,-121.93 112.67 05/13/2021 04:04:17 -81.23,-121.86 112.67 1.29 13
128 05/13/2021 04:55:15 81.23, 45.25 67.34 05/13/2021 04:55:02 81.23, 45.34 67.34 1.45 13
129 05/13/2021 05:45:59 -81.23,-147.32 112.69 05/13/2021 05:45:47 -81.23,-147.25 112.69 1.21 12
130 05/13/2021 06:36:44 81.23, 19.87 67.33 05/13/2021 06:36:32 81.23, 19.95 67.33 1.36 12
131 05/13/2021 07:27:28 -81.23,-172.70 112.70 05/13/2021 07:27:17 -81.23,-172.64 112.70 1.13 11
132 05/13/2021 08:18:13 81.23, -5.52 67.31 05/13/2021 08:18:02 81.23, -5.45 67.31 1.26 11
133 05/13/2021 09:08:57 -81.23, 161.91 112.72 05/13/2021 09:08:47 -81.23, 161.97 112.72 1.05 10
134 05/13/2021 09:59:42 81.23, -30.91 67.30 05/13/2021 09:59:32 81.23, -30.84 67.30 1.17 10
135 05/13/2021 10:50:26 -81.23, 136.52 112.73 05/13/2021 10:50:17 -81.23, 136.58 112.73 0.96 9
136 05/13/2021 11:41:10 81.22, -55.90 67.23 05/13/2021 11:41:01 81.22, -55.84 67.23 1.08 9
137 05/13/2021 12:31:55 -81.23, 111.14 112.75 05/13/2021 12:31:47 -81.23, 111.19 112.75 0.88 8
138 05/13/2021 13:22:39 81.22, -81.29 67.22 05/13/2021 13:22:31 81.22, -81.23 67.21 0.98 8
139 05/13/2021 14:13:24 -81.23, 85.75 112.76 05/13/2021 14:13:17 -81.23, 85.80 112.76 0.80 7
140 05/13/2021 15:04:08 81.22,-106.68 67.20 05/13/2021 15:04:01 81.22,-106.63 67.20 0.89 7
141 05/13/2021 15:54:53 -81.23, 60.37 112.77 05/13/2021 15:54:47 -81.23, 60.41 112.78 0.71 6
142 05/13/2021 16:45:37 81.22,-132.06 67.19 05/13/2021 16:45:31 81.22,-132.02 67.18 0.80 6
143 05/13/2021 17:36:22 -81.23, 34.98 112.79 05/13/2021 17:36:17 -81.23, 35.02 112.79 0.63 5
144 05/13/2021 18:27:06 81.23,-157.45 67.17 05/13/2021 18:27:01 81.22,-157.41 67.17 0.70 5
145 05/13/2021 19:17:51 -81.23, 9.60 112.80 05/13/2021 19:17:47 -81.23, 9.63 112.81 0.55 4
146 05/13/2021 20:08:35 81.23, 177.17 67.16 05/13/2021 20:08:31 81.22, 177.20 67.15 0.61 4
147 05/13/2021 20:59:20 -81.23, -15.79 112.82 05/13/2021 20:59:17 -81.23, -15.76 112.82 0.47 3
148 05/13/2021 21:50:04 81.23, 151.78 67.14 05/13/2021 21:50:01 81.22, 151.81 67.14 0.52 3
149 05/13/2021 22:40:49 -81.23, -41.18 112.83 05/13/2021 22:40:47 -81.23, -41.15 112.84 0.39 2
150 05/13/2021 23:31:33 81.23, 126.39 67.13 05/13/2021 23:31:31 81.22, 126.42 67.12 0.42 2
151 05/14/2021 00:22:18 -81.23, -66.56 112.85 05/14/2021 00:22:17 -81.23, -66.55 112.85 0.31 1
152 05/14/2021 01:13:02 81.23, 101.01 67.11 05/14/2021 01:13:01 81.22, 101.03 67.11 0.33 1
153 05/14/2021 02:03:47 -81.23, -91.95 112.86 05/14/2021 02:03:47 -81.23, -91.94 112.86 0.23 0
154 05/14/2021 02:54:31 81.23, 75.62 67.10 05/14/2021 02:54:31 81.22, 75.63 67.10 0.24 0
155 05/14/2021 03:45:16 -81.23,-117.34 112.88 05/14/2021 03:45:17 -81.23,-117.33 112.88 0.17 1
156 05/14/2021 04:36:00 81.23, 50.24 67.08 05/14/2021 04:36:01 81.23, 50.24 67.08 0.16 1
157 05/14/2021 05:26:44 -81.23,-142.72 112.89 05/14/2021 05:26:46 -81.23,-142.72 112.89 0.13 2
158 05/14/2021 06:17:28 81.23, 24.85 67.07 05/14/2021 06:17:30 81.23, 24.85 67.07 0.11 2
159 05/14/2021 07:08:13 -81.23,-168.11 112.91 05/14/2021 07:08:16 -81.23,-168.11 112.91 0.14 3
160 05/14/2021 07:58:57 81.23, -0.54 67.05 05/14/2021 07:59:00 81.23, -0.54 67.05 0.12 3
161 05/14/2021 08:49:42 -81.23, 166.51 112.92 05/14/2021 08:49:46 -81.23, 166.50 112.92 0.19 4
162 05/14/2021 09:40:26 81.23, -25.92 67.04 05/14/2021 09:40:30 81.23, -25.93 67.04 0.19 4
163 05/14/2021 10:31:11 -81.23, 141.12 112.94 05/14/2021 10:31:16 -81.23, 141.11 112.94 0.26 5
164 05/14/2021 11:21:55 81.23, -51.31 67.03 05/14/2021 11:22:00 81.23, -51.32 67.02 0.28 5
165 05/14/2021 12:12:40 -81.23, 115.73 112.95 05/14/2021 12:12:46 -81.23, 115.72 112.95 0.34 6
166 05/14/2021 13:03:24 81.23, -76.69 67.01 05/14/2021 13:03:30 81.23, -76.72 67.01 0.37 6
167 05/14/2021 13:54:09 -81.23, 90.35 112.96 05/14/2021 13:54:16 -81.23, 90.33 112.96 0.42 7
168 05/14/2021 14:44:53 81.23,-102.08 67.00 05/14/2021 14:45:00 81.23,-102.11 67.00 0.46 7
169 05/14/2021 15:35:38 -81.23, 64.96 112.98 05/14/2021 15:35:46 -81.23, 64.94 112.98 0.51 8
170 05/14/2021 16:26:22 81.23,-127.47 66.98 05/14/2021 16:26:30 81.23,-127.50 66.98 0.56 8
171 05/14/2021 17:17:07 -81.23, 39.58 112.99 05/14/2021 17:17:16 -81.23, 39.54 112.99 0.59 9
172 05/14/2021 18:07:51 81.23,-152.85 66.97 05/14/2021 18:08:00 81.23,-152.89 66.97 0.65 9
173 05/14/2021 18:58:36 -81.23, 14.19 113.01 05/14/2021 18:58:46 -81.23, 14.15 113.01 0.67 10
174 05/14/2021 19:49:20 81.23,-178.24 66.95 05/14/2021 19:49:30 81.23,-178.28 66.95 0.75 10
175 05/14/2021 20:40:05 -81.23, -11.20 113.02 05/14/2021 20:40:16 -81.23, -11.24 113.02 0.76 11
176 05/14/2021 21:30:49 81.23, 156.37 66.94 05/14/2021 21:31:00 81.23, 156.32 66.94 0.84 11
177 05/14/2021 22:21:33 -81.23, -36.19 113.09 05/14/2021 22:21:45 -81.23, -36.24 113.09 0.84 12
178 05/14/2021 23:12:18 81.23, 130.99 66.92 05/14/2021 23:12:30 81.23, 130.93 66.93 0.94 12
179 05/15/2021 00:03:02 -81.23, -61.58 113.10 05/15/2021 00:03:15 -81.23, -61.63 113.11 0.93 13
180 05/15/2021 00:53:47 81.23, 105.60 66.91 05/15/2021 00:54:00 81.23, 105.54 66.91 1.03 13
181 05/15/2021 01:44:31 -81.23, -86.97 113.12 05/15/2021 01:44:45 -81.23, -87.03 113.12 1.01 14
182 05/15/2021 02:35:16 81.23, 80.22 66.90 05/15/2021 02:35:30 81.23, 80.15 66.90 1.13 14



Historial Predications of SNOs between FY3D and NPP
